Time,B instrument,Bx,By,Bz,sigma B,Ion instrument,Status,Tp_par,Tp_perp,carrot,r_sun,clat,clong,earth_he_angle,n_p,vp_x,vp_y,vp_z,vth_p_par,vth_p_perp
1980-10-04 00:12:01,-1,nan,nan,nan,nan,1,3,nan,nan,1700,0.89667255,-3.2242937,338.34793,91.504181,nan,380.356,18.8192,35.8448,nan,nan
1980-10-04 00:33:37,-1,nan,nan,nan,nan,1,3,nan,nan,1700,0.89659339,-3.2256765,338.14661,91.502075,nan,380.819,2.71904,19.5045,nan,nan
1980-10-04 00:55:13,-1,nan,nan,nan,nan,1,3,nan,nan,1700,0.89651048,-3.2271242,337.94519,91.499878,nan,387.944,21.8941,13.3112,nan,nan
1980-10-04 01:16:49,-1,nan,nan,nan,nan,1,3,nan,nan,1700,0.89643127,-3.228508,337.7478,91.497787,nan,383.254,23.3756,21.4251,nan,nan
1980-10-04 01:38:25,-1,nan,nan,nan,nan,1,3,nan,nan,1700,0.89634824,-3.2299566,337.54639,91.49559,nan,372.177,20.7154,38.0483,nan,nan
1980-10-04 02:00:01,-1,nan,nan,nan,nan,1,3,nan,nan,1700,0.89626527,-3.2314062,337.34497,91.493408,nan,374.224,27.6872,44.603,nan,nan
1980-10-04 02:21:37,-1,nan,nan,nan,nan,1,3,nan,nan,1700,0.89618587,-3.232789,337.14758,91.491318,nan,369.156,11.606,43.2263,nan,nan
1980-10-04 02:43:13,-1,nan,nan,nan,nan,1,3,nan,nan,1700,0.89610273,-3.2342377,336.94617,91.489136,nan,368.855,9.58568,45.7764,nan,nan
1980-10-04 03:04:49,-1,nan,nan,nan,nan,1,3,nan,nan,1700,0.89602339,-3.2356215,336.74487,91.487061,nan,369.152,15.492,44.7734,nan,nan
1980-10-04 03:26:25,-1,nan,nan,nan,nan,1,3,nan,nan,1700,0.89594012,-3.237071,336.54739,91.484879,nan,371.113,24.4683,41.3973,nan,nan
1980-10-04 03:48:01,-1,nan,nan,nan,nan,1,3,nan,nan,1700,0.89585686,-3.2385206,336.34598,91.482697,nan,371.597,11.3953,39.0167,nan,nan
1980-10-04 04:09:37,-1,nan,nan,nan,nan,1,3,nan,nan,1700,0.89577734,-3.2399035,336.14468,91.480606,nan,374.888,34.3142,31.4039,nan,nan
1980-10-04 04:31:13,-1,nan,nan,nan,nan,1,3,nan,nan,1700,0.89569402,-3.241354,335.9472,91.478439,nan,382.906,21.6261,42.6441,nan,nan
1980-10-04 04:52:49,-1,nan,nan,nan,nan,1,3,nan,nan,1700,0.89561445,-3.2427378,335.74591,91.476364,nan,377.64,30.9573,36.273,nan,nan
1980-10-04 05:14:25,-1,nan,nan,nan,nan,1,3,nan,nan,1700,0.895531,-3.2441874,335.54453,91.474197,nan,391.577,23.1468,12.8942,nan,nan
1980-10-04 05:36:01,-1,nan,nan,nan,nan,1,3,nan,nan,1700,0.89544755,-3.2456379,335.34705,91.472031,nan,388.772,29.3302,6.87341,nan,nan
1980-10-04 05:57:37,-1,nan,nan,nan,nan,1,3,nan,nan,1700,0.89536786,-3.2470217,335.14575,91.469955,nan,390.16,32.1886,10.1447,nan,nan
1980-10-04 06:19:13,-1,nan,nan,nan,nan,1,3,nan,nan,1700,0.89528435,-3.2484722,334.94437,91.467789,nan,383.507,33.658,12.2541,nan,nan
1980-10-04 06:40:49,-1,nan,nan,nan,nan,1,3,nan,nan,1700,0.89520454,-3.2498569,334.74698,91.465729,nan,385.489,24.4812,10.3559,nan,nan
1980-10-04 07:02:16,-1,nan,nan,nan,nan,1,3,nan,nan,1700,0.89595151,-3.523813,334.33862,91.256592,nan,378.489,34.2319,15.209,nan,nan
1980-10-04 07:24:01,1,-2.9,-7.9,0.0,0.0,1,1,73931.6,42492.2,1700,0.89503729,-3.252758,334.34424,91.461426,16.3806,383.007,43.5569,15.7085,34.936,26.4857
1980-10-04 08:07:58,1,-1.28571,-10.1,1.01429,0.349927,1,1,61734.3,45646.0,1700,0.89487368,-3.2555933,333.93768,91.457214,14.766,372.191,29.8936,10.6337,31.9243,27.4511
1980-10-04 08:09:19,1,-1.88571,-9.81429,0.942857,0.376883,1,1,49803.9,42975.4,1700,0.89486605,-3.2557249,333.92578,91.457016,13.6906,371.2,30.3856,14.2159,28.6741,26.6359
1980-10-04 08:10:40,1,-2.07143,-9.9,0.885714,0.273302,1,1,57922.2,48056.5,1700,0.89486229,-3.2557907,333.91397,91.456924,14.5784,371.485,35.4735,13.4565,30.9229,28.1666
1980-10-04 08:11:08,1,-2.05714,-9.88571,1.11429,0.361403,1,1,46977.3,44468.3,1700,0.89485848,-3.2558565,333.90994,91.456818,13.9115,371.789,30.3905,14.8401,27.8485,27.0946
1980-10-04 08:12:29,1,-2.62857,-9.98571,0.971429,0.266497,1,1,57594.2,44119.4,1700,0.89485466,-3.2559233,333.89423,91.456726,13.9066,371.441,27.301,13.2684,30.8352,26.9881
1980-10-04 08:13:50,1,-2.41429,-10.0429,1.55714,0.307724,1,1,51982.2,42381.0,1700,0.89485085,-3.2559891,333.88242,91.456619,13.7898,371.867,27.8808,12.5832,29.2944,26.4511
1980-10-04 08:15:11,1,-2.31429,-9.77143,1.92857,0.413546,1,1,57314.0,47045.5,1700,0.89484322,-3.2561207,333.87051,91.456436,13.6854,371.84,27.515,11.8746,30.7601,27.8687
1980-10-04 08:16:32,1,-1.68571,-9.6,1.81429,0.392272,1,1,57582.7,50089.8,1700,0.89483941,-3.2561865,333.85867,91.456329,15.218,371.001,29.0341,11.694,30.8321,28.7563
1980-10-04 08:17:53,1,-0.728571,-9.78571,2.52857,0.462469,1,1,51805.4,46270.0,1700,0.89483559,-3.2562523,333.84686,91.456238,13.8958,373.324,32.2144,12.2578,29.2446,27.6381
1980-10-04 08:20:35,1,-1.18571,-10.0429,2.74286,0.493219,1,1,59993.5,45616.0,1700,0.89482421,-3.2564507,333.81924,91.455948,14.2503,366.939,31.2024,13.565,31.471,27.442
1980-10-04 08:21:56,1,-1.04286,-10.0429,2.67143,0.269542,1,1,48503.0,45295.9,1700,0.89482039,-3.2565165,333.8074,91.455841,13.6387,371.585,30.7239,13.791,28.2971,27.3456
1980-10-04 08:23:17,1,-1.41429,-9.77143,3.75714,0.320713,1,1,55808.0,45183.0,1700,0.89481276,-3.2566481,333.7955,91.455643,13.973,366.399,34.2788,17.4065,30.3533,27.3115
1980-10-04 08:24:38,1,-0.171429,-9.57143,3.34286,0.234738,1,1,46946.6,45678.0,1700,0.89480895,-3.2567148,333.78369,91.455551,14.8191,370.589,31.6692,15.1189,27.8394,27.4607
1980-10-04 08:25:59,1,-0.0428571,-9.57143,3.05714,0.209956,1,1,64471.7,43151.6,1700,0.89480513,-3.2567806,333.77188,91.45546,14.9828,371.67,27.9149,14.2021,32.6244,26.6905
1980-10-04 08:27:20,1,0.5,-10.1571,2.65714,0.24908,1,1,41530.2,42252.2,1700,0.8947975,-3.2569122,333.75995,91.455261,14.0497,370.118,30.2138,15.225,26.1843,26.4109
1980-10-04 08:28:41,1,0.328571,-9.88571,2.42857,0.296923,1,1,55948.0,48306.4,1700,0.89479369,-3.256978,333.74423,91.455154,15.0875,371.27,32.0682,14.2026,30.3914,28.2397
1980-10-04 08:30:02,1,0.914286,-9.38571,3.12857,0.429523,1,1,40145.6,43844.3,1700,0.89478612,-3.2571106,333.73233,91.454971,14.2146,373.289,31.6379,14.9051,25.7441,26.9039
1980-10-04 08:31:23,1,0.0428571,-9.75714,3.4,0.388088,1,1,58828.1,44787.9,1700,0.8947823,-3.2571764,333.72049,91.454865,14.6212,376.075,31.6832,16.3006,31.1638,27.1918
1980-10-04 08:32:44,1,1.37143,-9.15714,3.44286,0.289968,1,1,57747.5,46793.9,1700,0.89477849,-3.2572422,333.70868,91.454773,17.4517,373.711,25.3117,16.9946,30.8762,27.7941
1980-10-04 08:34:05,1,0.614286,-9.78571,3.67143,0.644917,1,1,77080.4,49282.4,1700,0.89477086,-3.2573738,333.69678,91.454575,18.4306,372.131,23.9907,14.0729,35.6722,28.5236
1980-10-04 08:35:26,1,1.14286,-9.4,3.72857,0.204041,1,1,73318.4,45504.9,1700,0.89476705,-3.2574396,333.68497,91.454483,17.2017,370.288,24.2053,14.8576,34.7908,27.4086
1980-10-04 08:36:47,1,0.971429,-9.51429,3.41429,0.426184,1,1,74133.6,50672.5,1700,0.89476323,-3.2575064,333.66922,91.454376,18.0168,372.142,22.7107,16.6213,34.9837,28.923
1980-10-04 08:38:08,1,0.571429,-9.7,3.15714,0.698102,1,1,67857.3,46979.9,1700,0.8947556,-3.257638,333.65732,91.454178,16.4974,371.679,27.3549,15.3471,33.47,27.8493
1980-10-04 08:39:29,1,-1.08571,-10.0429,3.3,0.202031,1,1,57177.1,47357.2,1700,0.89475179,-3.2577038,333.64551,91.454086,15.2137,370.875,33.4359,14.6866,30.7234,27.9609
1980-10-04 08:40:50,1,-0.671429,-9.55714,3.45714,0.313636,1,1,93626.9,46176.1,1700,0.89474803,-3.2577696,333.6337,91.453995,18.8498,370.917,24.9105,15.6411,39.315,27.61
1980-10-04 08:42:11,1,-0.4,-9.25,4.225,0.24367,1,1,90376.8,48753.7,1700,0.8947404,-3.2579021,333.62177,91.453796,20.6304,371.208,23.7561,19.2489,38.6266,28.3702
1980-10-04 08:43:31,1,1.125,-9.2875,3.1,0.174553,1,1,87102.2,49588.7,1700,0.89473659,-3.2579679,333.60995,91.45369,20.5105,375.897,23.7511,12.8788,37.9204,28.6121
1980-10-04 09:55:22,-1,nan,nan,nan,nan,1,3,nan,nan,1700,0.89446205,-3.2627172,332.94278,91.446671,nan,373.759,41.7064,14.341,nan,nan
1980-10-04 09:56:43,1,0.471429,-10.5143,1.97143,0.320077,1,1,75147.4,57563.9,1700,0.89445823,-3.2627831,332.93097,91.446579,19.2035,371.892,39.7734,13.9802,35.2221,30.8271
1980-10-04 09:58:04,1,0.171429,-11.3143,2.37143,0.315582,1,1,55425.4,52493.5,1700,0.8944506,-3.2629147,332.91904,91.446381,17.0416,373.471,37.3272,13.7376,30.2491,29.4382
1980-10-04 09:59:25,1,0.671429,-10.3714,1.67143,0.325764,1,1,79705.3,53765.0,1700,0.89444679,-3.2629805,332.90723,91.446289,19.5146,372.293,40.919,16.3578,36.2745,29.7926
1980-10-04 10:00:47,1,1.27143,-9.98571,1.1,0.385979,1,1,65392.6,55683.1,1700,0.89444298,-3.2630472,332.89151,91.446198,19.7803,370.735,42.798,17.6143,32.8566,30.3193
1980-10-04 10:02:08,1,1.38571,-9.87143,1.38571,0.360838,1,1,81131.6,57292.1,1700,0.89443529,-3.2631788,332.87961,91.445999,20.1648,371.439,43.6255,14.2544,36.5976,30.7542
1980-10-04 10:03:29,1,0.428571,-10.3429,2.02857,0.438457,1,1,64207.4,50767.5,1700,0.89443147,-3.2632446,332.86777,91.445892,19.007,372.111,41.5897,14.9074,32.5574,28.9501
1980-10-04 10:04:50,1,0.0714286,-10.2714,3.05714,0.330738,1,1,79715.1,54741.1,1700,0.89442766,-3.2633104,332.85596,91.445801,21.2092,373.525,36.4062,12.9642,36.2767,30.0618
1980-10-04 10:06:11,1,0.557143,-10.2286,2.42857,0.263416,1,1,65065.3,53486.7,1700,0.89442003,-3.263443,332.84406,91.445602,20.2914,373.207,43.6333,13.443,32.7742,29.7153
1980-10-04 10:07:32,1,1.27143,-9.84286,2.51429,0.583095,1,1,83029.7,60070.8,1700,0.89441621,-3.2635088,332.83224,91.445511,21.4122,373.886,42.7512,14.8498,37.0233,31.4912
1980-10-04 10:08:53,1,1.68571,-9.58571,0.928571,0.5115,1,1,87481.1,53863.1,1700,0.8944124,-3.2635746,332.81653,91.445419,22.1131,372.24,43.8238,9.08518,38.0027,29.8197
1980-10-04 10:10:14,1,1.77143,-9.78571,0.985714,0.84949,1,1,89166.9,57984.1,1700,0.89440477,-3.2637062,332.8046,91.445221,21.6912,373.287,45.6402,11.2648,38.3672,30.9394
1980-10-04 10:11:35,1,0.9,-10.6714,4.35714,0.364776,1,1,57240.2,53881.1,1700,0.89440095,-3.263773,332.79279,91.445129,18.253,374.478,43.6503,15.977,30.7403,29.8247
1980-10-04 10:12:56,1,1.54286,-10.3286,3.78571,0.239046,1,1,74617.5,54862.6,1700,0.89439714,-3.2638388,332.78098,91.445023,19.8324,372.404,42.7767,15.1279,35.0977,30.0951
1980-10-04 10:14:17,1,1.1,-10.0,4.44286,0.706818,1,1,68673.7,54568.6,1700,0.89438951,-3.2639704,332.76904,91.444824,19.9528,375.59,43.4484,15.6283,33.6708,30.0144
1980-10-04 10:15:38,1,0.614286,-10.3,3.6,0.335638,1,1,94976.5,55096.2,1700,0.8943857,-3.2640362,332.75723,91.444733,21.4181,374.087,45.5819,11.5186,39.5973,30.1591
1980-10-04 10:16:59,1,0.5,-10.1,4.88571,0.180702,1,1,66457.9,50906.7,1700,0.89438182,-3.2641029,332.74152,91.444641,19.8526,374.339,44.5728,12.9177,33.1231,28.9898
1980-10-04 10:18:20,1,0.2,-10.1286,4.65714,0.681535,1,1,86532.5,54291.0,1700,0.89437419,-3.2642345,332.72961,91.444443,20.5296,374.076,44.9894,12.1273,37.7962,29.9379
1980-10-04 10:19:41,1,-0.357143,-9.95714,6.02857,0.335638,1,1,67269.0,52701.1,1700,0.89437038,-3.2643003,332.7178,91.444351,17.2529,376.185,38.3312,10.5338,33.3246,29.4963
1980-10-04 10:21:02,1,1.48571,-9.98571,4.97143,0.685714,1,1,81138.2,57536.0,1700,0.89436275,-3.264432,332.70587,91.444153,19.6834,369.388,39.822,14.8372,36.5991,30.8196
1980-10-04 10:22:23,1,2.38571,-11.3714,3.71429,0.485714,1,1,49104.8,48789.0,1700,0.89435893,-3.2644987,332.69406,91.444046,16.8238,373.288,38.6574,16.6357,28.4721,28.3804
1980-10-04 10:23:44,1,2.02857,-11.4143,3.82857,0.341665,1,1,47792.6,47645.4,1700,0.89435512,-3.2645645,332.68225,91.443954,15.8283,371.703,38.8145,17.8068,28.0891,28.0458
1980-10-04 10:25:05,1,0.757143,-11.5,4.58571,0.367562,1,1,49919.5,42626.8,1700,0.89434749,-3.2646961,332.66641,91.443756,16.4882,367.787,41.4603,20.7847,28.7073,26.5277
1980-10-04 10:26:26,1,1.17143,-11.3143,4.55714,0.590399,1,1,48219.1,44182.1,1700,0.89434367,-3.2647619,332.6546,91.443665,15.786,372.382,39.6405,18.1607,28.2142,27.0073
1980-10-04 10:27:47,1,0.6,-11.8571,4.01429,0.252336,1,1,48909.7,41245.5,1700,0.89433986,-3.2648287,332.64279,91.443573,15.9517,374.945,42.4778,21.3783,28.4155,26.0943
1980-10-04 10:29:08,1,0.971429,-11.7286,3.61429,0.320077,1,1,55297.1,47052.3,1700,0.89433223,-3.2649603,332.63089,91.443375,16.6002,371.309,42.19,20.8725,30.2141,27.8707
1980-10-04 10:30:29,1,1.74286,-11.3857,4.25714,0.510302,1,1,49774.6,42156.4,1700,0.89432842,-3.2650261,332.61908,91.443283,16.7148,369.815,43.7579,20.6321,28.6656,26.3809
1980-10-04 10:31:50,1,0.185714,-10.3143,6.57143,0.372526,1,1,53018.5,46967.6,1700,0.89432454,-3.2650919,332.60724,91.443176,16.1851,372.202,42.5424,16.5167,29.585,27.8456
1980-10-04 10:33:11,1,0.771429,-10.7571,5.27143,0.234738,1,1,49370.5,48224.4,1700,0.89431691,-3.2652245,332.59143,91.442978,16.2216,369.544,48.2507,21.228,28.549,28.2157
1980-10-04 10:34:32,1,0.828571,-9.92857,6.6,0.458035,1,1,52582.6,49597.7,1700,0.8943131,-3.2652903,332.57962,91.442886,15.6208,372.612,44.3742,16.9985,29.4631,28.6147
1980-10-04 10:35:53,1,0.771429,-10.2714,6.28571,0.37362,1,1,49472.6,48885.8,1700,0.89430928,-3.2653561,332.56781,91.442795,16.4002,371.74,45.3774,15.5718,28.5786,28.4086
1980-10-04 10:37:14,1,0.885714,-10.5143,5.9,0.399489,1,1,52320.4,51868.1,1700,0.89430165,-3.2654877,332.55588,91.442596,16.3512,370.727,45.6295,20.522,29.3896,29.2623
1980-10-04 10:38:34,1,1.05714,-10.3714,6.01429,0.475094,1,1,50482.4,48351.9,1700,0.89429784,-3.2655544,332.54407,91.442505,16.1615,369.079,44.2268,17.5821,28.8687,28.253
1980-10-04 10:43:04,1,1.98571,-10.7571,5.05714,0.283563,1,1,47615.3,45477.2,1700,0.89427876,-3.2658834,332.50061,91.442017,16.0553,367.037,46.1502,21.3228,28.037,27.4003
1980-10-04 10:43:59,1,2.15714,-10.5,5.22857,0.309707,1,1,50606.1,49461.0,1700,0.89511073,-3.5381663,332.28549,91.234711,15.954,366.917,45.6022,20.5426,28.9041,28.5752
1980-10-04 10:44:25,1,2.12857,-10.4857,5.0,0.33442,1,1,53279.2,53675.2,1700,0.89427495,-3.2659502,332.4888,91.44191,16.0876,369.126,47.5781,21.6627,29.6577,29.7677
1980-10-04 10:45:20,1,2.42857,-10.4571,5.02857,0.234738,1,1,52080.0,48030.8,1700,0.89427114,-3.266016,332.4809,91.441818,15.9423,367.827,45.0127,21.6916,29.322,28.159
1980-10-04 10:46:41,1,2.34286,-10.4857,5.14286,0.221313,1,1,49776.0,47228.2,1700,0.89426726,-3.2660818,332.46909,91.441727,16.1746,366.716,45.4361,20.6739,28.6661,27.9228
1980-10-04 10:48:02,1,2.25714,-10.6143,4.97143,0.287849,1,1,53517.7,49009.2,1700,0.89425963,-3.2662134,332.45715,91.441528,16.4077,368.188,45.4194,21.0326,29.724,28.4444
1980-10-04 10:49:23,1,2.44286,-10.4143,4.8,0.162882,1,1,50401.9,47732.1,1700,0.89425582,-3.2662802,332.44144,91.441437,16.1604,367.534,46.004,21.7861,28.8457,28.0713
1980-10-04 10:50:44,-1,nan,nan,nan,nan,1,3,nan,nan,1700,0.894252,-3.266346,332.42963,91.44133,nan,367.654,44.2584,21.9587,nan,nan
1980-10-04 10:52:05,-1,nan,nan,nan,nan,1,3,nan,nan,1700,0.89424437,-3.2664776,332.41769,91.441132,nan,366.782,45.1964,23.0928,nan,nan
1980-10-04 10:53:26,-1,nan,nan,nan,nan,1,3,nan,nan,1700,0.89424056,-3.2665434,332.40588,91.44104,nan,367.345,43.7579,21.6694,nan,nan
1980-10-04 10:54:47,-1,nan,nan,nan,nan,1,3,nan,nan,1700,0.89423674,-3.2666092,332.39407,91.440948,nan,364.886,45.3648,22.5909,nan,nan
1980-10-04 10:56:08,-1,nan,nan,nan,nan,1,3,nan,nan,1700,0.89422911,-3.2667418,332.38217,91.44075,nan,366.295,43.2597,23.2934,nan,nan
1980-10-04 11:00:11,-1,nan,nan,nan,nan,1,3,nan,nan,1700,0.89421386,-3.2670059,332.34271,91.440369,nan,365.176,43.6379,23.1688,nan,nan
1980-10-04 11:01:32,1,2.94286,-10.7143,4.11429,0.332584,1,1,52698.0,53541.9,1700,0.89420998,-3.2670717,332.3309,91.440262,15.7665,368.179,42.2295,20.8045,29.4955,29.7307
1980-10-04 11:02:53,1,3.17143,-10.6857,4.17143,0.292072,1,1,47416.0,49421.3,1700,0.89420617,-3.2671375,332.31909,91.44017,15.5687,365.841,44.7848,23.7594,27.9782,28.5637
1980-10-04 11:04:14,1,3.32857,-10.4,3.6,0.423301,1,1,56484.1,53252.7,1700,0.89419854,-3.2672691,332.30716,91.439972,16.2216,363.922,43.9093,25.0837,30.5366,29.6503
1980-10-04 11:05:35,1,4.47143,-9.72857,3.35714,0.234738,1,1,40583.0,48593.5,1700,0.89419472,-3.2673359,332.29144,91.43988,15.4809,368.745,45.5267,25.0852,25.8839,28.3235
1980-10-04 11:06:56,1,4.21429,-9.65714,2.72857,0.338062,1,1,68410.3,50999.7,1700,0.89419091,-3.2674017,332.27963,91.439774,17.4586,367.07,47.5771,21.2185,33.6061,29.0163
1980-10-04 11:08:17,1,3.84286,-9.84286,2.28571,0.393311,1,1,54705.7,53267.5,1700,0.89418322,-3.2675333,332.26773,91.43959,17.2795,365.236,47.5428,21.9025,30.052,29.6544
1980-10-04 11:09:38,1,2.97143,-10.0571,3.2,0.248259,1,1,71682.0,52628.5,1700,0.8941794,-3.2675991,332.25589,91.439484,17.7071,363.044,47.5773,25.8252,34.4004,29.476
1980-10-04 11:10:59,1,3.12857,-9.84286,3.02857,0.252336,1,1,56984.1,53251.7,1700,0.89417559,-3.2676659,332.24408,91.439392,16.9376,365.791,47.1179,24.0168,30.6715,29.65
1980-10-04 11:12:20,1,3.14286,-9.91429,2.85714,0.201018,1,1,71647.0,55578.8,1700,0.89416796,-3.2677975,332.23218,91.439194,17.9062,360.998,47.7054,23.3971,34.392,30.2909
1980-10-04 11:13:41,1,3.27143,-9.95714,2.85714,0.241593,1,1,54535.8,52491.2,1700,0.89416409,-3.2678633,332.21646,91.439102,16.9228,361.947,45.8702,24.6028,30.0053,29.4375
1980-10-04 11:15:02,1,2.26667,-9.93333,3.2,0.278887,1,1,64295.1,58038.0,1700,0.89415646,-3.2679958,332.20453,91.438904,17.9795,362.858,48.1652,24.3704,32.5797,30.9538
1980-10-04 11:16:23,1,2.38571,-10.0857,3.4,0.42714,1,1,46451.5,57679.8,1700,0.89415264,-3.2680616,332.19272,91.438812,17.0564,362.156,44.2833,25.4462,27.6922,30.8581
1980-10-04 11:17:44,1,3.68571,-9.72857,2.02857,0.306394,1,1,66723.7,54164.9,1700,0.89414883,-3.2681274,332.18091,91.438721,17.1673,365.348,47.0162,24.7044,33.1893,29.9031
1980-10-04 11:19:05,1,4.26667,-9.75,1.56667,0.321887,1,1,59116.4,52228.8,1700,0.89414114,-3.268259,332.16901,91.438522,17.7441,359.861,46.9027,28.7688,31.2401,29.3638
1980-10-04 11:20:26,1,4.61429,-9.54286,1.3,0.289264,1,1,68080.0,57742.8,1700,0.89413732,-3.2683258,332.1572,91.438431,18.7373,358.377,46.4805,26.0756,33.5249,30.875
1980-10-04 11:21:47,1,4.72857,-9.3,1.74286,1.27455,1,1,67309.2,53949.8,1700,0.89413351,-3.2683916,332.14145,91.438324,18.8423,362.79,46.6834,23.0841,33.3346,29.8437
1980-10-04 11:23:08,1,-0.785714,-11.1571,5.28571,0.503457,1,1,58362.4,61249.8,1700,0.89412588,-3.2685232,332.12955,91.438141,13.5883,361.216,48.4698,27.6893,31.0402,31.7988
1980-10-04 11:24:29,1,-1.2,-11.3286,4.68571,0.330121,1,1,58735.3,59355.4,1700,0.89412206,-3.268589,332.11774,91.438034,14.2175,369.088,46.0376,20.4346,31.1392,31.3032
1980-10-04 11:25:50,1,0.866667,-11.7333,3.56667,0.223607,1,1,75882.7,52906.8,1700,0.89411819,-3.2686558,332.10593,91.437943,14.1406,367.268,45.1277,24.6252,35.394,29.5538
1980-10-04 11:27:11,1,1.55714,-11.9,2.61429,0.568923,1,1,63039.9,49447.5,1700,0.89411056,-3.2687874,332.09399,91.437744,12.051,367.234,43.1403,27.3234,32.2601,28.5713
1980-10-04 11:28:32,1,2.21429,-11.5429,2.97143,0.261861,1,1,78058.5,38023.0,1700,0.89410675,-3.2688532,332.08218,91.437653,12.6333,371.403,47.0417,30.3435,35.8978,25.0542
1980-10-04 11:29:53,1,2.82857,-11.8,1.5,0.656211,1,1,57049.0,45384.9,1700,0.89410293,-3.268919,332.06647,91.437546,11.1378,370.63,41.6966,24.5034,30.6889,27.3725
1980-10-04 11:31:14,1,4.47143,-10.7571,0.957143,0.612789,1,1,50260.1,45487.5,1700,0.89409524,-3.2690516,332.05457,91.437363,12.4045,373.269,42.5863,24.9245,28.8051,27.4034
1980-10-04 11:32:35,1,5.1,-10.5143,0.6,0.279942,1,1,49235.5,51712.2,1700,0.89409143,-3.2691174,332.04272,91.437256,12.3319,373.473,47.2291,18.0227,28.51,29.2183
1980-10-04 11:33:56,1,5.85714,-10.0,-0.485714,0.39383,1,1,56248.9,45240.7,1700,0.89408761,-3.2691832,332.03091,91.437164,12.7681,374.767,46.5275,8.46764,30.473,27.3289
1980-10-04 11:35:17,1,4.25714,-11.1857,1.41429,0.596931,1,1,46340.6,46366.9,1700,0.89407998,-3.2693157,332.01901,91.436966,12.523,370.402,42.7295,17.6839,27.6591,27.667
1980-10-04 11:36:38,1,3.72857,-11.3857,2.44286,0.325137,1,1,60076.7,43991.5,1700,0.89407617,-3.2693815,332.0072,91.436874,13.2735,370.601,42.7158,26.8914,31.4928,26.949
1980-10-04 11:37:59,1,4.38571,-10.9857,1.98571,0.321984,1,1,53668.6,45102.9,1700,0.89407229,-3.2694473,331.99149,91.436783,13.5539,368.274,40.1481,29.3392,29.7658,27.2873
1980-10-04 11:39:20,1,4.35714,-11.4429,1.12857,0.454905,1,1,61618.0,41852.8,1700,0.89406466,-3.2695789,331.97955,91.436584,12.3849,369.465,41.1561,33.1073,31.8942,26.2857
1980-10-04 11:40:41,1,4.92857,-11.1286,-0.657143,0.375255,1,1,58261.7,45331.2,1700,0.89406085,-3.2696457,331.96774,91.436493,11.6106,367.636,34.1656,42.9367,31.0134,27.3562
1980-10-04 11:42:02,1,4.18571,-11.5857,-0.928571,0.582044,1,1,31052.2,46680.9,1700,0.89405322,-3.2697773,331.95584,91.436295,11.0242,373.473,33.5989,35.5788,22.6414,27.7605
1980-10-04 11:43:23,1,1.74286,-11.1286,6.74286,1.32496,1,1,65336.0,53120.9,1700,0.89404935,-3.2698431,331.94403,91.436203,13.2284,372.775,29.9067,14.2826,32.8424,29.6136
1980-10-04 11:44:44,1,4.74286,-10.7286,-0.857143,1.01338,1,1,58530.2,47329.4,1700,0.89404553,-3.2699089,331.93219,91.436096,11.6946,365.446,33.2447,45.6651,31.0848,27.9527
1980-10-04 11:46:05,1,5.45714,-9.72857,-2.48571,0.459814,1,1,62868.2,45435.2,1700,0.8940379,-3.2700415,331.91638,91.435898,12.8706,366.203,35.1377,45.8774,32.2161,27.3876
1980-10-04 11:47:26,1,4.74286,-9.95714,-3.38571,0.619084,1,1,64752.8,46369.9,1700,0.89403409,-3.2701073,331.90457,91.435806,11.4494,373.244,33.5075,40.5054,32.6954,27.6679
1980-10-04 11:48:47,1,4.45714,-10.2143,-1.67143,0.774597,1,1,69913.9,43919.9,1700,0.89403027,-3.2701731,331.89276,91.435715,12.2372,370.328,40.7649,38.4608,33.9735,26.927
1980-10-04 11:50:08,1,0.1,-8.08571,9.8,0.496929,1,1,41390.8,38151.0,1700,0.89402258,-3.2703056,331.88083,91.435516,13.8591,386.364,28.9988,-6.94468,26.1402,25.0964
1980-10-04 11:51:29,1,0.0571429,-10.1,7.91429,0.53261,1,1,48714.9,36364.0,1700,0.89401877,-3.2703714,331.86902,91.435425,12.9328,384.8,34.3569,-4.17428,28.3589,24.5015
1980-10-04 11:52:50,1,-1.2875,-7.0,10.2875,2.27973,1,1,55497.1,40932.2,1700,0.89401495,-3.2704372,331.85721,91.435318,12.3103,394.972,12.0365,-22.7941,30.2687,25.995
1980-10-04 11:54:11,1,1.41429,-11.1,5.74286,1.40233,1,1,55770.0,48127.3,1700,0.89400733,-3.2705688,331.8414,91.435135,12.5876,372.783,43.1814,15.4249,30.343,28.1873
1980-10-04 11:55:32,1,2.98571,-10.3857,4.11429,4.41856,1,1,58282.4,42024.5,1700,0.89400345,-3.2706356,331.82956,91.435028,10.0908,372.684,47.7841,51.8416,31.0189,26.3396
1980-10-04 11:56:53,1,3.37143,-9.52857,5.65714,0.421852,1,1,49203.9,47391.5,1700,0.89399964,-3.2707014,331.81775,91.434937,13.1934,369.585,30.3826,5.37556,28.5008,27.971
1980-10-04 11:58:14,1,3.72857,-11.3857,2.42857,1.05134,1,1,66658.2,60361.9,1700,0.89399201,-3.270833,331.80585,91.434738,9.57059,371.538,28.4654,12.1514,33.173,31.5674
1980-10-04 11:59:35,1,3.81429,-11.4143,1.3,0.492391,1,1,58378.1,54982.3,1700,0.89398819,-3.2708988,331.79404,91.434647,10.4551,370.219,32.7455,30.5444,31.0444,30.1279
1980-10-04 12:00:56,1,3.8,-11.2429,1.18571,0.425225,1,1,58615.6,59861.0,1700,0.89398438,-3.2709656,331.78223,91.434555,9.51034,372.262,30.62,29.1621,31.1074,31.4362
1980-10-04 12:02:17,1,2.75714,-6.47143,7.7,3.63498,1,1,110635.0,78756.1,1700,0.89397669,-3.2710972,331.76639,91.434357,10.0188,374.07,-2.76111,-16.2,42.737,36.0579
1980-10-04 12:03:38,1,3.65714,-9.27143,-0.857143,0.870843,1,1,111693.0,106102.0,1700,0.89397287,-3.271163,331.75458,91.434265,10.8393,372.053,16.9906,44.7093,42.9409,41.8522
1980-10-04 12:04:59,1,1.6,-11.0714,0.914286,2.16276,1,1,159894.0,117744.0,1700,0.893969,-3.2712288,331.74277,91.434158,9.96124,385.83,10.5587,37.2081,51.3776,44.0887
1980-10-04 12:06:20,1,3.125,-10.9,0.05,0.519013,1,1,109504.0,108001.0,1700,0.89396137,-3.2713614,331.73087,91.433975,9.21542,385.446,9.65908,42.0243,42.5179,42.2252
1980-10-04 12:07:41,1,2.5125,-11.425,1.2,0.444937,1,1,114836.0,120802.0,1700,0.89395756,-3.2714272,331.71902,91.433868,9.52417,382.088,9.37958,36.8765,43.5409,44.6575
1980-10-04 12:09:02,1,2.55,-11.4,2.15,0.339116,1,1,123030.0,111915.0,1700,0.89394987,-3.2715588,331.70712,91.433685,8.8037,382.089,8.69506,36.2858,45.0676,42.9835
1980-10-04 12:10:23,1,2.1625,-9.6875,5.8375,3.18132,1,1,129403.0,116723.0,1700,0.89394605,-3.2716255,331.69141,91.433578,9.13566,387.635,11.9759,35.6265,46.2201,43.8972
1980-10-04 12:11:44,1,0.9125,-4.3,9.9625,0.893553,1,1,173231.0,105867.0,1700,0.89394224,-3.2716913,331.6796,91.433487,10.8,385.783,-7.1112,-5.88939,53.4775,41.8059